COSMOS 2361 [-] 1 25590U 98076A 21018.86039641 .00000032 00000-0 18339-4 0 9993 2 25590 82.9324 226.5104 0031118 196.8223 174.2097 13.72989424105629 COSMOS 2378 [-] 1 26818U 01023A 21019.12085829 .00000070 00000-0 58129-4 0 9995 2 26818 82.9275 245.2911 0033418 144.5681 215.7711 13.73950693983686 COSMOS 2389 [-] 1 27436U 02026A 21018.88426366 .00000017 00000-0 15010-5 0 9997 2 27436 82.9502 190.7142 0046595 12.9093 97.5544 13.74952314935669 COSMOS 2398 [-] 1 27818U 03023A 21019.13249540 .00000001 00000-0 -15107-4 0 9995 2 27818 82.9494 150.4792 0032324 41.7899 318.5720 13.72185496882857 COSMOS 2407 [+] 1 28380U 04028A 21019.15490778 .00000052 00000-0 38000-4 0 9991 2 28380 82.9610 97.1633 0039715 17.5208 342.7320 13.76086075828424 COSMOS 2414 [+] 1 28521U 05002A 21019.20633795 .00000050 00000-0 28800-4 0 9990 2 28521 82.9507 97.0089 0039618 197.8584 162.1199 13.87628105810237 COSMOS 2429 [-] 1 32052U 07038A 21019.09960480 .00000015 00000-0 10438-6 0 9997 2 32052 82.9788 221.2526 0038302 352.0937 7.9610 13.74934413670310 COSMOS 2454 [-] 1 35635U 09039A 21019.14071397 .00000033 00000-0 13930-4 0 9994 2 35635 82.9567 84.3622 0019903 145.4179 214.8289 13.89658154583267 COSMOS 2463 [+] 1 36519U 10017A 21018.93680063 .00000033 00000-0 20259-4 0 9998 2 36519 82.9606 260.7103 0035236 208.6722 151.2498 13.71451451537267